ENST Weather Reports


time (UTC)temp
C
wind
direction
speed
KPH
gust
KPH
rain 1hr
cm
rain 24hr
cm
rain mn
cm
humidity
%
barometer
mb
20260507123308 5 210 22.5 0.0 0.00 0.00 0.00 75 1016.0
20260507120307 5 210 19.3 0.0 0.00 0.00 0.00 81 1016.0
20260507113308 5 200 22.5 0.0 0.00 0.00 0.00 86 1016.0
20260507110307 5 210 22.5 0.0 0.00 0.00 0.00 93 1016.0
20260507103307 2 190 19.3 0.0 0.00 0.00 0.00 93 1016.0
20260507100308 2 190 19.3 0.0 0.00 0.00 0.00 93 1016.0
20260507093307 2 180 16.1 0.0 0.00 0.00 0.00 86 1015.0
20260507090308 1 190 16.1 0.0 0.00 0.00 0.00 93 1015.0
20260507083307 1 190 16.1 0.0 0.00 0.00 0.00 93 1015.0
20260507080308 0 190 24.1 0.0 0.00 0.00 0.00 93 1015.0
20260507073307 1 190 20.9 0.0 0.00 0.00 0.00 93 1014.0
20260507070307 1 220 16.1 0.0 0.00 0.00 0.00 93 1014.0
20260507063307 2 220 24.1 0.0 0.00 0.00 0.00 86 1014.0
20260507060306 3 190 19.3 0.0 0.00 0.00 0.00 80 1013.0
20260507053307 3 190 19.3 0.0 0.00 0.00 0.00 80 1013.0
20260507050307 2 180 19.3 0.0 0.00 0.00 0.00 86 1013.0
20260507043308 2 180 20.9 0.0 0.00 0.00 0.00 86 1013.0
20260507040308 2 180 22.5 0.0 0.00 0.00 0.00 86 1013.0
20260507033307 2 190 22.5 0.0 0.00 0.00 0.00 86 1013.0
20260507030306 2 190 22.5 0.0 0.00 0.00 0.00 86 1012.0
20260507023307 2 180 19.3 0.0 0.00 0.00 0.00 86 1012.0
20260507020307 2 180 20.9 0.0 0.00 0.00 0.00 86 1012.0
20260507013307 2 180 19.3 0.0 0.00 0.00 0.00 80 1012.0
20260507010306 3 170 16.1 0.0 0.00 0.00 0.00 75 1012.0
20260507003307 2 190 12.9 0.0 0.00 0.00 0.00 86 1012.0
20260507000307 2 280 11.3 0.0 0.00 0.00 0.00 86 1012.0
20260506233307 3 170 14.5 0.0 0.00 0.00 0.00 75 1012.0
20260506230307 3 180 19.3 0.0 0.00 0.00 0.00 75 1012.0
20260506223307 3 180 14.5 0.0 0.00 0.00 0.00 75 1012.0
20260506220307 2 190 14.5 0.0 0.00 0.00 0.00 86 1011.0
20260506213307 2 190 16.1 0.0 0.00 0.00 0.00 86 1011.0
20260506210307 2 190 8.0 0.0 0.00 0.00 0.00 93 1012.0
20260506203306 2 240 9.7 0.0 0.00 0.00 0.00 93 1011.0
20260506200306 3 190 14.5 0.0 0.00 0.00 0.00 80 1011.0
20260506193307 2 190 20.9 0.0 0.00 0.00 0.00 86 1011.0
20260506190306 2 180 20.9 0.0 0.00 0.00 0.00 86 1011.0
20260506183307 3 190 20.9 0.0 0.00 0.00 0.00 80 1011.0
20260506180307 3 190 12.9 0.0 0.00 0.00 0.00 80 1011.0
20260506173308 5 200 12.9 0.0 0.00 0.00 0.00 80 1011.0
20260506170307 3 190 16.1 0.0 0.00 0.00 0.00 86 1011.0
20260506163307 5 210 14.5 0.0 0.00 0.00 0.00 86 1010.0
20260506160307 5 210 14.5 0.0 0.00 0.00 0.00 86 1010.0
20260506153307 5 240 12.9 0.0 0.00 0.00 0.00 80 1010.0
20260506150307 2 110 3.2 0.0 0.00 0.00 0.00 93 1010.0
20260506143307 5 230 16.1 0.0 0.00 0.00 0.00 75 1010.0
20260506140307 5 230 16.1 0.0 0.00 0.00 0.00 75 1010.0
20260506133307 5 220 14.5 0.0 0.00 0.00 0.00 75 1010.0
20260506130308 5 210 16.1 0.0 0.00 0.00 0.00 70 1010.0